When you browse on this site, cookies collect data to enhance your experience and personalize the content and advertising you see.
Visit our Privacy Policy to learn more. By continuing to use the site, you agree to this use of cookies and data.
  • En España
  • Lista de países
  • Para 7 días
  • Temperatura del agua
  • Mapa Satelital
  • El tiempo en el mapa
  • Informadores
  • user-avatar
    Iniciar sesión

    Tiempo cada hora Pazardzhik

    Hoy, 22 Enero, Martes

    Tiempo Temperatura Precipitaciones Viento Presión Humedad
    00:00 +4°C° 0 mm 2 mps 745 mmHg 87%
    01:00 +3°C° 0 mm 2 mps 745 mmHg 88%
    02:00 +2°C° 0 mm 3 mps 745 mmHg 87%
    03:00 +2°C° 0 mm 3 mps 745 mmHg 88%
    04:00 +2°C° 0 mm 2 mps 745 mmHg 88%
    05:00 +2°C° 0 mm 2 mps 744 mmHg 88%
    06:00 +2°C° 0.1 mm 2 mps 744 mmHg 89%
    07:00 +2°C° 0.1 mm 2 mps 744 mmHg 90%
    08:00 0°C° 0 mm 3 mps 744 mmHg 89%
    09:00 +1°C° 0.1 mm 3 mps 743 mmHg 87%
    10:00 +2°C° 0.1 mm 3 mps 743 mmHg 85%
    11:00 +2°C° 0.1 mm 3 mps 743 mmHg 83%
    12:00 +3°C° 0.1 mm 3 mps 742 mmHg 82%
    13:00 +3°C° 0.1 mm 3 mps 742 mmHg 81%
    14:00 +4°C° 0.1 mm 3 mps 741 mmHg 80%
    15:00 +4°C° 0 mm 3 mps 741 mmHg 82%
    16:00 +3°C° 0 mm 3 mps 740 mmHg 85%
    17:00 +3°C° 0 mm 3 mps 740 mmHg 87%
    18:00 +3°C° 0 mm 3 mps 739 mmHg 89%
    19:00 +3°C° 0 mm 3 mps 738 mmHg 91%
    20:00 +4°C° 0 mm 2 mps 738 mmHg 92%
    21:00 +4°C° 0.1 mm 2 mps 737 mmHg 93%
    22:00 +4°C° 0.1 mm 2 mps 737 mmHg 93%
    23:00 +4°C° 0.1 mm 2 mps 736 mmHg 93%

    Mañana, 23 Enero, Miércoles

    Tiempo Temperatura Precipitaciones Viento Presión Humedad
    00:00 +4°C° 0.1 mm 2 mps 736 mmHg 94%
    01:00 +4°C° 0.1 mm 2 mps 735 mmHg 94%
    02:00 +4°C° 0.1 mm 2 mps 735 mmHg 94%
    03:00 +4°C° 0 mm 2 mps 734 mmHg 93%
    04:00 +4°C° 0 mm 2 mps 734 mmHg 93%
    05:00 +5°C° 0 mm 2 mps 734 mmHg 92%
    06:00 +4°C° 0 mm 2 mps 734 mmHg 91%
    07:00 +4°C° 0 mm 2 mps 734 mmHg 90%
    08:00 +5°C° 0 mm 1 mps 734 mmHg 89%
    09:00 +7°C° 0 mm 1 mps 734 mmHg 84%
    10:00 +7°C° 0 mm 2 mps 734 mmHg 78%
    11:00 +9°C° 0 mm 2 mps 734 mmHg 73%
    12:00 +10°C° 0 mm 2 mps 734 mmHg 69%
    13:00 +10°C° 0 mm 2 mps 733 mmHg 65%
    14:00 +12°C° 0 mm 2 mps 733 mmHg 61%
    15:00 +10°C° 0 mm 2 mps 733 mmHg 66%
    16:00 +9°C° 0 mm 2 mps 732 mmHg 72%
    17:00 +8°C° 0 mm 2 mps 732 mmHg 77%
    18:00 +8°C° 0.1 mm 2 mps 732 mmHg 79%
    19:00 +7°C° 0.1 mm 2 mps 732 mmHg 81%
    20:00 +8°C° 0.1 mm 1 mps 731 mmHg 83%
    21:00 +7°C° 0.1 mm 2 mps 731 mmHg 85%
    22:00 +7°C° 0.1 mm 2 mps 731 mmHg 88%
    23:00 +7°C° 0.1 mm 2 mps 731 mmHg 90%

    Pasado mañana, 24 Enero, Jueves

    Tiempo Temperatura Precipitaciones Viento Presión Humedad
    00:00 +7°C° 0 mm 2 mps 731 mmHg 92%
    01:00 +7°C° 0 mm 2 mps 730 mmHg 93%
    02:00 +7°C° 0 mm 2 mps 730 mmHg 94%
    03:00 +8°C° 0.1 mm 1 mps 729 mmHg 95%
    04:00 +8°C° 0.1 mm 1 mps 729 mmHg 95%
    05:00 +8°C° 0.1 mm 1 mps 728 mmHg 96%
    06:00 +8°C° 0.2 mm 1 mps 728 mmHg 96%
    07:00 +8°C° 0.2 mm 1 mps 728 mmHg 96%
    08:00 +8°C° 0.2 mm 1 mps 728 mmHg 97%
    09:00 +8°C° 1.1 mm 1 mps 728 mmHg 96%
    10:00 +8°C° 1.1 mm 1 mps 728 mmHg 96%
    11:00 +8°C° 1.1 mm 1 mps 728 mmHg 96%
    12:00 +7°C° 0.9 mm 2 mps 727 mmHg 95%
    13:00 +7°C° 0.9 mm 2 mps 727 mmHg 95%
    14:00 +7°C° 0.9 mm 2 mps 727 mmHg 94%
    15:00 +7°C° 0.9 mm 2 mps 726 mmHg 94%
    16:00 +8°C° 0.9 mm 1 mps 726 mmHg 95%
    17:00 +8°C° 0.9 mm 1 mps 726 mmHg 95%
    18:00 +8°C° 1.4 mm 1 mps 727 mmHg 95%
    19:00 +8°C° 1.4 mm 1 mps 727 mmHg 95%
    20:00 +8°C° 1.4 mm 1 mps 727 mmHg 95%
    21:00 +8°C° 1.8 mm 1 mps 728 mmHg 95%
    22:00 +8°C° 1.8 mm 1 mps 728 mmHg 94%
    23:00 +8°C° 1.8 mm 1 mps 729 mmHg 93%

    25 Enero, Viernes

    Tiempo Temperatura Precipitaciones Viento Presión Humedad
    00:00 +8°C° 0.3 mm 1 mps 729 mmHg 92%
    01:00 +7°C° 0.3 mm 1 mps 729 mmHg 91%
    02:00 +7°C° 0.3 mm 1 mps 729 mmHg 90%
    03:00 +7°C° 0 mm 1 mps 729 mmHg 90%
    04:00 +7°C° 0 mm 1 mps 729 mmHg 89%
    05:00 +6°C° 0 mm 1 mps 729 mmHg 89%
    06:00 +6°C° 0.2 mm 1 mps 729 mmHg 90%
    07:00 +6°C° 0.2 mm 1 mps 729 mmHg 92%
    08:00 +7°C° 0.2 mm 1 mps 729 mmHg 93%
    09:00 +7°C° 1.6 mm 1 mps 728 mmHg 93%
    10:00 +7°C° 1.6 mm 1 mps 728 mmHg 93%
    11:00 +8°C° 1.6 mm 1 mps 728 mmHg 94%
    12:00 +8°C° 0.6 mm 2 mps 727 mmHg 91%
    13:00 +9°C° 0.6 mm 3 mps 727 mmHg 88%
    14:00 +10°C° 0.6 mm 4 mps 726 mmHg 86%
    15:00 +8°C° 0.3 mm 4 mps 726 mmHg 87%
    16:00 +8°C° 0.3 mm 4 mps 726 mmHg 87%
    17:00 +8°C° 0.3 mm 4 mps 725 mmHg 88%
    18:00 +7°C° 0.1 mm 4 mps 726 mmHg 89%
    19:00 +8°C° 0.1 mm 3 mps 726 mmHg 90%
    20:00 +7°C° 0.1 mm 2 mps 726 mmHg 91%
    21:00 +7°C° 0.1 mm 2 mps 727 mmHg 92%
    22:00 +7°C° 0.1 mm 2 mps 727 mmHg 92%
    23:00 +7°C° 0.1 mm 1 mps 727 mmHg 92%

    26 Enero, Sábado

    Tiempo Temperatura Precipitaciones Viento Presión Humedad
    00:00 +7°C° 0.1 mm 1 mps 727 mmHg 93%
    01:00 +7°C° 0.1 mm 1 mps 727 mmHg 94%
    02:00 +6°C° 0.1 mm 1 mps 727 mmHg 96%
    03:00 +6°C° 1.2 mm 1 mps 727 mmHg 96%
    04:00 +7°C° 1.2 mm 1 mps 727 mmHg 97%
    05:00 +7°C° 1.2 mm 1 mps 727 mmHg 98%
    06:00 +7°C° 1.8 mm 1 mps 728 mmHg 97%
    07:00 +7°C° 1.8 mm 1 mps 728 mmHg 95%
    08:00 +7°C° 1.8 mm 1 mps 728 mmHg 94%
    09:00 +6°C° 0.5 mm 2 mps 728 mmHg 93%
    10:00 +6°C° 0.5 mm 2 mps 729 mmHg 91%
    11:00 +6°C° 0.5 mm 2 mps 729 mmHg 90%
    12:00 +5°C° 0.6 mm 3 mps 729 mmHg 88%
    13:00 +5°C° 0.6 mm 3 mps 729 mmHg 86%
    14:00 +5°C° 0.6 mm 3 mps 728 mmHg 84%
    15:00 +5°C° 0.6 mm 3 mps 729 mmHg 84%
    16:00 +5°C° 0.6 mm 3 mps 729 mmHg 84%
    17:00 +5°C° 0.6 mm 3 mps 729 mmHg 84%
    18:00 +5°C° 0.6 mm 3 mps 729 mmHg 84%
    19:00 +4°C° 0.6 mm 3 mps 730 mmHg 85%
    20:00 +4°C° 0.6 mm 3 mps 730 mmHg 85%
    21:00 +3°C° 0.5 mm 3 mps 731 mmHg 85%
    22:00 +3°C° 0.5 mm 3 mps 731 mmHg 86%
    23:00 +4°C° 0.5 mm 2 mps 731 mmHg 86%

    27 Enero, Domingo

    Tiempo Temperatura Precipitaciones Viento Presión Humedad
    00:00 +4°C° 0.2 mm 2 mps 731 mmHg 86%
    01:00 +3°C° 0.2 mm 2 mps 731 mmHg 86%
    02:00 +3°C° 0.2 mm 2 mps 732 mmHg 86%
    03:00 +3°C° 0.2 mm 2 mps 732 mmHg 86%
    04:00 +3°C° 0.2 mm 2 mps 732 mmHg 86%
    05:00 +3°C° 0.2 mm 2 mps 732 mmHg 86%
    06:00 +3°C° 0.1 mm 2 mps 732 mmHg 86%
    07:00 +3°C° 0.1 mm 2 mps 732 mmHg 85%
    08:00 +3°C° 0.1 mm 2 mps 732 mmHg 85%
    09:00 +4°C° 0 mm 2 mps 733 mmHg 83%
    10:00 +5°C° 0 mm 2 mps 733 mmHg 80%
    11:00 +6°C° 0 mm 2 mps 733 mmHg 78%
    12:00 +6°C° 0 mm 2 mps 733 mmHg 77%
    13:00 +7°C° 0 mm 2 mps 733 mmHg 76%
    14:00 +7°C° 0 mm 2 mps 733 mmHg 75%
    15:00 +7°C° 0 mm 2 mps 734 mmHg 77%
    16:00 +7°C° 0 mm 1 mps 734 mmHg 79%
    17:00 +7°C° 0 mm 1 mps 734 mmHg 81%
    18:00 +6°C° 0 mm 1 mps 735 mmHg 83%
    19:00 +5°C° 0 mm 1 mps 735 mmHg 84%
    20:00 +5°C° 0 mm 1 mps 736 mmHg 86%
    21:00 +4°C° 0 mm 1 mps 736 mmHg 85%
    22:00 +4°C° 0 mm 1 mps 737 mmHg 85%
    23:00 +4°C° 0 mm 1 mps 737 mmHg 84%
    Mostrar más